• In Kazakhstan
  • List of Countries
  • For 7 days
  • Water Temperature
  • Weather Map
  • News
  • Weather Widgets
  • user-avatar
    Login

    Hourly Weather Uida

    Today, 24 August, Saturday

    Time Temperature Precipitation Wind Pressure Humidity
    00:00 +26°C° 0 mm 4 mps 760 mmHg 89%
    01:00 +26°C° 0.1 mm 5 mps 760 mmHg 89%
    02:00 +26°C° 0.1 mm 5 mps 759 mmHg 90%
    03:00 +26°C° 0.1 mm 5 mps 758 mmHg 91%
    04:00 +26°C° 0.1 mm 5 mps 759 mmHg 91%
    05:00 +26°C° 0.1 mm 4 mps 759 mmHg 91%
    06:00 +26°C° 0.1 mm 4 mps 760 mmHg 92%
    07:00 +27°C° 0 mm 4 mps 760 mmHg 86%
    08:00 +28°C° 0 mm 4 mps 760 mmHg 79%
    09:00 +30°C° 0 mm 4 mps 760 mmHg 73%
    10:00 +30°C° 0.1 mm 5 mps 760 mmHg 70%
    11:00 +32°C° 0.1 mm 5 mps 760 mmHg 67%
    12:00 +32°C° 0.1 mm 6 mps 759 mmHg 64%
    13:00 +32°C° 0 mm 6 mps 759 mmHg 66%
    14:00 +32°C° 0 mm 6 mps 758 mmHg 67%
    15:00 +30°C° 0 mm 6 mps 757 mmHg 69%
    16:00 +29°C° 0.1 mm 6 mps 758 mmHg 73%
    17:00 +28°C° 0.1 mm 6 mps 758 mmHg 77%
    18:00 +27°C° 0.1 mm 6 mps 758 mmHg 81%
    19:00 +27°C° 0 mm 6 mps 759 mmHg 83%
    20:00 +27°C° 0 mm 5 mps 759 mmHg 85%
    21:00 +26°C° 0 mm 5 mps 760 mmHg 87%
    22:00 +26°C° 0 mm 5 mps 760 mmHg 88%
    23:00 +26°C° 0 mm 5 mps 760 mmHg 88%

    Tomorrow, 25 August, Sunday

    Time Temperature Precipitation Wind Pressure Humidity
    00:00 +26°C° 0 mm 4 mps 760 mmHg 89%
    01:00 +26°C° 0.1 mm 5 mps 760 mmHg 89%
    02:00 +26°C° 0.1 mm 5 mps 759 mmHg 89%
    03:00 +26°C° 0.1 mm 5 mps 759 mmHg 89%
    04:00 +26°C° 0.1 mm 5 mps 759 mmHg 89%
    05:00 +26°C° 0.1 mm 5 mps 759 mmHg 89%
    06:00 +26°C° 0.1 mm 5 mps 760 mmHg 88%
    07:00 +27°C° 0.1 mm 5 mps 760 mmHg 83%
    08:00 +28°C° 0.1 mm 6 mps 760 mmHg 78%
    09:00 +29°C° 0.1 mm 6 mps 761 mmHg 72%
    10:00 +30°C° 0.1 mm 6 mps 760 mmHg 69%
    11:00 +32°C° 0.1 mm 6 mps 760 mmHg 65%
    12:00 +32°C° 0.1 mm 7 mps 759 mmHg 62%
    13:00 +32°C° 0.2 mm 7 mps 759 mmHg 63%
    14:00 +32°C° 0.2 mm 7 mps 758 mmHg 64%
    15:00 +30°C° 0.2 mm 7 mps 757 mmHg 65%
    16:00 +29°C° 0 mm 6 mps 758 mmHg 67%
    17:00 +28°C° 0 mm 6 mps 758 mmHg 70%
    18:00 +27°C° 0 mm 5 mps 758 mmHg 73%
    19:00 +27°C° 0 mm 5 mps 759 mmHg 75%
    20:00 +27°C° 0 mm 5 mps 759 mmHg 76%
    21:00 +27°C° 0 mm 5 mps 760 mmHg 78%
    22:00 +26°C° 0 mm 5 mps 760 mmHg 80%
    23:00 +26°C° 0 mm 5 mps 760 mmHg 81%

    Day after tomorrow, 26 August, Monday

    Time Temperature Precipitation Wind Pressure Humidity
    00:00 +26°C° 0 mm 5 mps 759 mmHg 83%
    01:00 +26°C° 0 mm 5 mps 759 mmHg 83%
    02:00 +26°C° 0 mm 5 mps 759 mmHg 83%
    03:00 +26°C° 0 mm 5 mps 759 mmHg 83%
    04:00 +26°C° 0 mm 5 mps 759 mmHg 84%
    05:00 +26°C° 0 mm 5 mps 759 mmHg 84%
    06:00 +26°C° 0 mm 5 mps 759 mmHg 84%
    07:00 +26°C° 0 mm 5 mps 760 mmHg 81%
    08:00 +27°C° 0 mm 5 mps 760 mmHg 78%
    09:00 +28°C° 0 mm 5 mps 761 mmHg 74%
    10:00 +29°C° 0.2 mm 6 mps 760 mmHg 72%
    11:00 +29°C° 0.2 mm 6 mps 760 mmHg 69%
    12:00 +30°C° 0.2 mm 6 mps 759 mmHg 67%
    13:00 +30°C° 0.1 mm 7 mps 758 mmHg 64%
    14:00 +30°C° 0.1 mm 7 mps 758 mmHg 62%
    15:00 +32°C° 0.1 mm 7 mps 757 mmHg 60%
    16:00 +29°C° 0 mm 6 mps 757 mmHg 63%
    17:00 +28°C° 0 mm 6 mps 758 mmHg 67%
    18:00 +27°C° 0 mm 6 mps 758 mmHg 71%
    19:00 +27°C° 0 mm 5 mps 758 mmHg 73%
    20:00 +26°C° 0 mm 5 mps 759 mmHg 75%
    21:00 +26°C° 0 mm 4 mps 760 mmHg 77%
    22:00 +26°C° 0 mm 4 mps 760 mmHg 78%
    23:00 +26°C° 0 mm 4 mps 759 mmHg 79%

    27 August, Tuesday

    Time Temperature Precipitation Wind Pressure Humidity
    00:00 +26°C° 0 mm 4 mps 759 mmHg 80%
    01:00 +26°C° 0 mm 4 mps 759 mmHg 80%
    02:00 +26°C° 0 mm 4 mps 759 mmHg 80%
    03:00 +26°C° 0 mm 4 mps 758 mmHg 81%
    04:00 +25°C° 0.2 mm 4 mps 759 mmHg 83%
    05:00 +25°C° 0.2 mm 4 mps 759 mmHg 85%
    06:00 +25°C° 0.2 mm 4 mps 759 mmHg 88%
    07:00 +26°C° 0.2 mm 4 mps 760 mmHg 85%
    08:00 +27°C° 0.2 mm 4 mps 760 mmHg 81%
    09:00 +27°C° 0.2 mm 4 mps 761 mmHg 78%
    10:00 +28°C° 0 mm 4 mps 760 mmHg 76%
    11:00 +28°C° 0 mm 4 mps 760 mmHg 75%
    12:00 +28°C° 0 mm 4 mps 759 mmHg 73%
    13:00 +29°C° 0 mm 5 mps 759 mmHg 71%
    14:00 +29°C° 0 mm 5 mps 758 mmHg 69%
    15:00 +29°C° 0 mm 6 mps 757 mmHg 67%
    16:00 +28°C° 0 mm 5 mps 757 mmHg 71%
    17:00 +28°C° 0 mm 5 mps 757 mmHg 75%
    18:00 +27°C° 0 mm 5 mps 758 mmHg 79%
    19:00 +26°C° 0 mm 5 mps 758 mmHg 80%
    20:00 +26°C° 0 mm 4 mps 759 mmHg 81%
    21:00 +26°C° 0 mm 4 mps 760 mmHg 82%
    22:00 +26°C° 0 mm 4 mps 759 mmHg 83%
    23:00 +25°C° 0 mm 4 mps 759 mmHg 84%

    28 August, Wednesday

    Time Temperature Precipitation Wind Pressure Humidity
    00:00 +25°C° 0 mm 4 mps 759 mmHg 85%
    01:00 +25°C° 0 mm 4 mps 759 mmHg 84%
    02:00 +26°C° 0 mm 4 mps 759 mmHg 83%
    03:00 +26°C° 0 mm 4 mps 759 mmHg 83%
    04:00 +26°C° 0 mm 4 mps 759 mmHg 83%
    05:00 +26°C° 0 mm 4 mps 759 mmHg 83%
    06:00 +26°C° 0 mm 4 mps 759 mmHg 83%
    07:00 +26°C° 0 mm 4 mps 759 mmHg 82%
    08:00 +26°C° 0 mm 4 mps 760 mmHg 82%
    09:00 +27°C° 0 mm 4 mps 760 mmHg 81%
    10:00 +27°C° 0 mm 4 mps 760 mmHg 77%
    11:00 +28°C° 0 mm 5 mps 759 mmHg 73%
    12:00 +29°C° 0 mm 5 mps 759 mmHg 69%
    13:00 +29°C° 0 mm 5 mps 758 mmHg 69%
    14:00 +29°C° 0 mm 5 mps 758 mmHg 68%
    15:00 +30°C° 0 mm 6 mps 757 mmHg 67%
    16:00 +29°C° 0 mm 5 mps 757 mmHg 71%
    17:00 +28°C° 0 mm 5 mps 758 mmHg 75%
    18:00 +27°C° 0 mm 5 mps 758 mmHg 79%
    19:00 +26°C° 0 mm 5 mps 758 mmHg 81%
    20:00 +26°C° 0 mm 4 mps 759 mmHg 83%
    21:00 +26°C° 0 mm 4 mps 759 mmHg 85%
    22:00 +26°C° 0 mm 4 mps 759 mmHg 86%
    23:00 +25°C° 0 mm 4 mps 759 mmHg 88%

    29 August, Thursday

    Time Temperature Precipitation Wind Pressure Humidity
    00:00 +25°C° 0 mm 4 mps 759 mmHg 89%
    01:00 +25°C° 0 mm 4 mps 759 mmHg 89%
    02:00 +25°C° 0 mm 4 mps 759 mmHg 89%
    03:00 +25°C° 0 mm 4 mps 759 mmHg 89%
    04:00 +25°C° 0.1 mm 4 mps 759 mmHg 88%
    05:00 +25°C° 0.1 mm 4 mps 759 mmHg 88%
    06:00 +25°C° 0.1 mm 4 mps 760 mmHg 88%
    07:00 +26°C° 0.1 mm 4 mps 760 mmHg 84%
    08:00 +27°C° 0.1 mm 4 mps 760 mmHg 80%
    09:00 +28°C° 0.1 mm 4 mps 761 mmHg 75%
    10:00 +29°C° 0.1 mm 4 mps 760 mmHg 74%
    11:00 +29°C° 0.1 mm 4 mps 760 mmHg 72%
    12:00 +29°C° 0.1 mm 4 mps 760 mmHg 71%
    13:00 +29°C° 0 mm 5 mps 759 mmHg 70%
    14:00 +29°C° 0 mm 5 mps 758 mmHg 70%
    15:00 +29°C° 0 mm 6 mps 758 mmHg 69%
    16:00 +28°C° 0 mm 5 mps 758 mmHg 73%
    17:00 +27°C° 0 mm 5 mps 758 mmHg 76%
    18:00 +26°C° 0 mm 5 mps 758 mmHg 80%
    19:00 +26°C° 0 mm 5 mps 759 mmHg 81%
    20:00 +26°C° 0 mm 4 mps 759 mmHg 83%
    21:00 +25°C° 0 mm 4 mps 760 mmHg 84%
    22:00 +25°C° 0 mm 4 mps 760 mmHg 85%
    23:00 +25°C° 0 mm 4 mps 760 mmHg 86%
    Show more